Flag for U.S.A. Weather past 2 weeks in Pasadena, California, U.S.A.

Now
77 °F

Clear.


Feels Like: 79 °F
Forecast: 68 / 93 °F
Wind: 9 mph from East

Location: Burbank-Glendale-Pasadena Airport

Current Time: Jul 25, 2014 at 12:26:46 AM

Latest Report: Jul 24, 2014 at 11:53 PM


Visibility: 10 mi

Pressure: 29.78 "Hg

Humidity: 52%

Dew point: 58 °F

Location of PasadenaLocation

Historic Weather in Pasadena — Graph

°F

Pasadena temperature yesterday

Maximum temperature yesterday: 97 °F (at 3:53 PM)
Minimum temperature yesterday: 67 °F (at 5:53 AM)
Average temperature yesterday: 83 °F

Past Weeks' High & Low Weather Summary

 TemperatureHumidityPressure
High97 °F (Jul 24, 3:53 PM)87% (Jul 10, 3:53 AM)30.03 "Hg (Jul 10, 3:53 AM)
Low62 °F (Jul 18, 4:53 AM)20% (Jul 23, 4:53 PM)29.70 "Hg (Jul 24, 6:53 PM)
Average73 °F61%29.93 "Hg
* Reported Jul 9 10:53 PM — Jul 24 10:53 PM, Pasadena, Weather by CustomWeather, © 2014

Note: Actual official high and low records may vary slightly from our data, if they occured in-between our weather recording intervals... More about our weather records

Advertising

Pasadena weather history for previous 24 hours

 ConditionsComfort  
Time TempWeatherWind HumidityBarometerVisibility
10:53 PM
Jul 24
78 °FClear.9 mph50%29.77 "Hg10 mi
9:53 PM80 °FClear.6 mph49%29.75 "Hg10 mi
8:53 PM84 °FSunny.6 mph40%29.73 "Hg10 mi
7:53 PM88 °FSunny.9 mph30%29.71 "Hg10 mi
6:53 PM94 °FSunny.7 mph22%29.70 "Hg10 mi
5:53 PM93 °FSunny.9 mph24%29.70 "Hg10 mi
4:53 PM94 °FSunny.9 mph25%29.72 "Hg10 mi
3:53 PM97 °FSunny.13 mph21%29.72 "Hg10 mi
2:53 PM96 °FSunny.6 mph20%29.74 "Hg10 mi
1:53 PM95 °FSunny.12 mph26%29.76 "Hg10 mi
12:53 PM96 °FSunny.7 mph23%29.77 "Hg10 mi
11:53 AM94 °FSunny.No wind20%29.78 "Hg10 mi
10:53 AM92 °FSunny.3 mph21%29.80 "Hg10 mi
9:53 AM85 °FSunny.No wind31%29.82 "Hg10 mi
8:53 AM79 °FSunny.No wind39%29.83 "Hg10 mi
7:53 AM74 °FSunny.No wind45%29.85 "Hg10 mi
6:53 AM70 °FClear.No wind46%29.84 "Hg10 mi
5:53 AM67 °FClear.No wind53%29.83 "Hg10 mi
4:53 AM68 °FClear.No wind59%29.82 "Hg10 mi
3:53 AM70 °FClear.No wind55%29.82 "Hg10 mi
2:53 AM71 °FClear.No wind63%29.83 "Hg10 mi
1:53 AM72 °FClear.3 mph61%29.84 "Hg10 mi
12:53 AM73 °FClear.3 mph59%29.86 "Hg10 mi
Weather by CustomWeather, © 2014

See weather overviewHow to use our weather pages